Regional Weather Roundup
Issued by NWS

Home | Current Version | Previous Version | Graphics & Text | Print | Product List | Glossary On
Versions: 1 2 3 4 5 6 7 8 9 10 11 12 13 14 15 16 17 18 19 20 21 22 23 24 25 26 27 28 29 30 31 32 33 34 35 36 37 38 39 40 41 42 43 44 45 46 47 48 49 50
000
ASUS43 KBIS 261202
RWRND

NORTH DAKOTA REGIONAL WEATHER ROUNDUP
NATIONAL WEATHER SERVICE BISMARCK ND
700 AM CDT MON SEP 26 2016

NOTE: "FAIR" INDICATES FEW OR NO CLOUDS BELOW 12,000 FEET WITH NO
SIGNIFICANT WEATHER AND/OR OBSTRUCTIONS TO VISIBILITY.


NDZ001>003-009>011-017-261300-
NORTHWEST NORTH DAKOTA

CITY           SKY/WX    TMP DP  RH WIND       PRES   REMARKS
WILLISTON      CLEAR     40  33  76 S5        30.20S
6HR MIN TEMP:  37; 6HR MAX TEMP:  45;

MINOT          CLEAR     46  34  62 W14       30.11S
MINOT AFB      CLEAR     44  34  69 W15       30.10S
$$

NDZ018>021-031>035-040>046-261300-
SOUTHWEST NORTH DAKOTA

CITY           SKY/WX    TMP DP  RH WIND       PRES   REMARKS
BISMARCK       CLEAR     41  34  76 W8        30.17S
6HR MIN TEMP:  39; 6HR MAX TEMP:  46;

DICKINSON      CLEAR     36  34  92 W7        30.19S
GARRISON         N/A     41  37  86 W10       30.14S
6HR MIN TEMP:  41; 6HR MAX TEMP:  46;

HETTINGER ARPT CLEAR     37  34  89 W6        30.22F
$$

NDZ004>008-012>016-024-026-027-054-261300-
NORTHEAST NORTH DAKOTA

CITY           SKY/WX    TMP DP  RH WIND       PRES   REMARKS
GRAND FORKS    PTCLDY    48  37  65 NW15      29.94S
GRND FRKS AFB  CLEAR     48  37  64 NW13      29.95S
DEVILS LAKE    CLEAR     45  37  73 W13       30.03S
$$

NDZ022-023-025-028>030-036>039-047>053-261300-
SOUTHEAST NORTH DAKOTA

CITY           SKY/WX    TMP DP  RH WIND       PRES   REMARKS
FARGO          CLEAR     47  36  65 W12       29.98R
6HR MIN TEMP:  47; 6HR MAX TEMP:  54;

JAMESTOWN      CLEAR     46  36  68 W13       30.06S
$$





USA.gov is the U.S. government's official web portal to all federal, state and local government web resources and services.